Flag for Mexico Weather past 2 weeks in Guadalajara, Jalisco, Mexico

Now
73 °F

Partly sunny.


Feels Like: 77 °F
Forecast: 62 / 73 °F
Wind: No wind

Location: Don Miguel / Guadalaj

Current Time: Oct 20, 2014 at 1:53:37 PM

Latest Report: Oct 20, 2014 at 12:49 PM


Visibility: 10 mi

Pressure: 29.78 "Hg

Humidity: 57%

Dew point: 57 °F

Location of GuadalajaraLocation

Historic Weather in Guadalajara — Graph

°F

Guadalajara temperature yesterday

Maximum temperature yesterday: 81 °F (at 2:48 PM)
Minimum temperature yesterday: 63 °F (at 1:53 AM)
Average temperature yesterday: 69 °F

Past Weeks' High & Low Weather Summary

 TemperatureHumidityPressure
High82 °F (Oct 14, 4:49 PM)94% (Oct 6, 3:54 AM)30.26 "Hg (Oct 6, 3:54 AM)
Low50 °F (Oct 16, 7:49 AM)17% (Oct 17, 5:49 PM)29.67 "Hg (Oct 19, 6:52 PM)
Average67 °F70%30.04 "Hg
* Reported Oct 5 11:50 AM — Oct 20 11:45 AM, Guadalajara, Weather by CustomWeather, © 2014

Note: Actual official high and low records may vary slightly from our data, if they occured in-between our weather recording intervals... More about our weather records

Advertising

Guadalajara weather history for previous 24 hours

 ConditionsComfort  
Time TempWeatherWind HumidityBarometerVisibility
11:45 AM
Oct 20
70 °FPartly sunny.5 mph64%30.11 "Hg8 mi
9:52 AM66 °FCloudy.No wind83%29.78 "Hg8 mi
8:54 AM63 °FCloudy.No wind88%30.09 "Hg8 mi
7:53 AM61 °FPartly cloudy.No wind94%30.07 "Hg8 mi
6:46 AM63 °FLight rain. Overcast.No wind94%29.72 "Hg8 mi
5:54 AM63 °FMostly cloudy.No wind94%30.05 "Hg10 mi
4:51 AM63 °FLight rain. Mostly cloudy.No wind88%30.05 "Hg7 mi
3:53 AM63 °FPassing clouds.3 mph88%29.71 "Hg10 mi
3:00 AM63 °FMild.N/A88%30.07 "HgN/A
2:54 AM63 °FPassing clouds.8 mph88%30.07 "Hg8 mi
1:51 AM66 °FPassing clouds.3 mph78%30.07 "Hg10 mi
12:48 AM66 °FPassing clouds.5 mph83%29.73 "Hg10 mi
11:48 PM
Oct 19
68 °FPartly cloudy.No wind83%30.07 "Hg10 mi
9:54 PM70 °FPartly cloudy.7 mph64%29.74 "Hg10 mi
8:48 PM70 °FPassing clouds.No wind69%30.02 "Hg10 mi
7:48 PM72 °FScattered clouds.3 mph69%30.00 "Hg10 mi
6:52 PM77 °FBroken clouds.3 mph47%29.67 "Hg12 mi
5:49 PM81 °FBroken clouds.No wind42%29.99 "Hg12 mi
3:49 PM79 °FPartly sunny.No wind45%29.70 "Hg12 mi
2:48 PM81 °FPartly sunny.7 mph42%30.05 "Hg12 mi
1:55 PM77 °FPartly sunny.8 mph47%30.08 "Hg12 mi
Weather by CustomWeather, © 2014

See weather overviewHow to use our weather pages